Ocean City, MD

7:44 PM EDT on August 28, 2016 (GMT -0400)
Ocean City Municipal

Weather History for KOXB - April, 2014

Change the Weather History Date:

Thursday, April 3, 2014

  Actual Average (KSBY) Record (KSBY)
Temperature  
Mean Temperature 51 °F 50 °F  
Max Temperature 59 °F 61 °F 86 °F (1963)
Min Temperature 45 °F 40 °F 25 °F (2008)
Degree Days  
Heating Degree Days 14 15  
Month to date heating degree days 46  
Since 1 July heating degree days 3981  
Cooling Degree Days 0 0  
Month to date cooling degree days 0  
Year to date cooling degree days 2  
Growing Degree Days 1 (Base 50)    
Moisture  
Dew Point 43 °F    
Average Humidity 78    
Maximum Humidity 90    
Minimum Humidity 57    
Precipitation  
Precipitation 0.00 in 0.13 in 1.20 in (1915)
Month to date precipitation 0.41  
Year to date precipitation 11.79  
Snow  
Snow 0.00 in 0.00 in 10.00 in (1915)
Month to date snowfall 0.0  
Since 1 July snowfall 9.1  
Snow Depth -    
Sea Level Pressure  
Sea Level Pressure 30.06 in    
Wind  
Wind Speed 3 mph (ENE)    
Max Wind Speed 12 mph    
Max Gust Speed -    
Visibility 10 miles    
Events      
T = Trace of Precipitation, MM = Missing Value Source: NWS Daily Summary

Daily Weather History Graph

Daily Weather History Graph

Search for Another Location

Airport or City:

Trip Planner

Search our weather history database for the weather conditions in past years. The results will help you decide how hot, cold, wet, or windy it might be!

Date:

Astronomy

Apr. 03, 2014 Rise Set
Actual Time 6:42 AM EDT 7:25 PM EDT
Civil Twilight 6:15 AM EDT 7:52 PM EDT
Nautical Twilight 5:44 AM EDT 8:23 PM EDT
Astronomical Twilight 5:11 AM EDT 8:56 PM EDT
Moon 9:12 AM EDT (4/3) 11:40 PM EDT (4/3)
Length of Visible Light 13h 36m
Length of Day
12h 43m
Waxing Crescent, 17% of the Moon is Illuminated
Apr 3
Waxing Crescent
Apr 7
First Quarter
Apr 15
Full
Apr 22
Last Quarter
Apr 29
New

Hourly Weather History & Observations

Time (EDT) Temp. Windchill Dew Point Humidity Pressure Visibility Wind Dir Wind Speed Gust Speed Precip Events Conditions
12:53 AM 48.0 °F - 45.0 °F 89% 30.09 in 10.0 mi Calm Calm - N/A   Scattered Clouds
1:53 AM 46.9 °F - 44.1 °F 90% 30.07 in 10.0 mi Calm Calm - N/A   Mostly Cloudy
2:53 AM 46.9 °F - 44.1 °F 90% 30.06 in 10.0 mi Calm Calm - N/A   Mostly Cloudy
3:53 AM 48.9 °F - 45.0 °F 86% 30.09 in 10.0 mi Calm Calm - N/A   Overcast
4:53 AM 48.9 °F - 45.0 °F 86% 30.07 in 10.0 mi East 4.6 mph - N/A   Overcast
5:53 AM 46.0 °F 44.8 °F 43.0 °F 89% 30.08 in 8.0 mi ESE 3.5 mph - N/A   Mostly Cloudy
6:53 AM 46.0 °F 43.9 °F 43.0 °F 89% 30.08 in 10.0 mi East 4.6 mph - N/A   Mostly Cloudy
7:53 AM 50.0 °F - 44.1 °F 80% 30.08 in 10.0 mi ENE 4.6 mph - N/A   Overcast
8:53 AM 52.0 °F - 45.0 °F 77% 30.10 in 10.0 mi ENE 6.9 mph - N/A   Mostly Cloudy
10:53 AM 55.0 °F - 42.1 °F 62% 30.11 in 10.0 mi ENE 4.6 mph - N/A   Partly Cloudy
11:53 AM 55.9 °F - 41.0 °F 57% 30.10 in 10.0 mi East 4.6 mph - N/A   Partly Cloudy
12:53 PM 57.0 °F - 42.1 °F 57% 30.10 in 10.0 mi East 5.8 mph - N/A   Partly Cloudy
1:53 PM 57.0 °F - 43.0 °F 59% 30.08 in 10.0 mi ENE 11.5 mph - N/A   Overcast
2:53 PM 54.0 °F - 45.0 °F 72% 30.06 in 10.0 mi ENE 10.4 mph - N/A   Clear
3:53 PM 51.1 °F - 42.1 °F 71% 30.06 in 10.0 mi NE 9.2 mph - N/A   Overcast
4:53 PM 48.9 °F - 41.0 °F 74% 30.05 in 10.0 mi NE 8.1 mph - N/A   Mostly Cloudy
5:53 PM 46.9 °F - 41.0 °F 80% 30.03 in 10.0 mi ENE 9.2 mph - 0.00 in   Overcast
6:53 PM 46.0 °F 41.9 °F 39.9 °F 79% 30.00 in 10.0 mi ENE 8.1 mph - N/A   Clear
7:53 PM 46.0 °F 43.1 °F 41.0 °F 83% 30.01 in 10.0 mi East 5.8 mph - N/A   Mostly Cloudy
8:53 PM 45.0 °F 42.6 °F 39.9 °F 82% 30.01 in 10.0 mi ESE 4.6 mph - N/A   Scattered Clouds
9:53 PM 45.0 °F - 41.0 °F 86% 30.01 in 10.0 mi Calm Calm - N/A   Scattered Clouds
11:53 PM 46.9 °F - 43.0 °F 86% 29.99 in 10.0 mi Calm Calm - N/A   Mostly Cloudy